Location: Stuttgart
(48.8069°N, 9.1544°E)
Time: 12:12:09
(UTC+01:00)

ISS - Pass Details

Date: 09 January 2018
Orbit: 402 x 407 km, 51.6° (Epoch: 19 January)

Event Time Altitude Azimuth Distance (km) Brightness Sun altitude
Exits shadow 05:48:49 38° 59° (ENE) 642 -2.5 -23.2°
Drops below altitude 10° 05:51:09 10° 85° (E) 1,469 0.1 -22.8°
Sets 05:53:16 0° 91° (E) 2,329 1.5 -22.4°
